Flag for Sudan

Past Weather in Kosti, Sudan — Yesterday and Last 2 Weeks

Currently: 75 °F. Clear. (Weather station: Khartoum Airport, Sudan). See more current weather

Past Weather in Kosti — Graph

°F

Kosti Temperature Yesterday

Maximum temperature yesterday: 91 °F (at 2:00 pm)
Minimum temperature yesterday: 61 °F (at 6:30 am)
Average temperature yesterday: 76 °F

High & Low Weather Summary for the Past Weeks

 TemperatureHumidityPressure
High93 °F (Jan 3, 2:30 pm)57% (Jan 12, 8:00 am)30.01 "Hg (Jan 12, 8:00 am)
Low61 °F (Jan 17, 6:30 am)10% (Jan 17, 2:00 pm)29.80 "Hg (Jan 8, 2:00 pm)
Average79 °F26%29.90 "Hg
* Reported Jan 2 11:00 pm — Jan 17 11:30 pm, Kosti. Weather by CustomWeather, © 2021

Note: Actual official high and low records may vary slightly from our data, if they occured in-between our weather recording intervals... More about our weather records

Kosti Weather History for the Previous 24 Hours

Scroll right to see more
 ConditionsComfort  
Time TempWeatherWind HumidityBarometerVisibility
11:30 pm
Sun, Jan 17
73 °FClear.12 mph27%29.92 "Hg10 mi
11:00 pm73 °FClear.9 mph27%29.95 "Hg10 mi
10:30 pm73 °FClear.9 mph27%29.95 "Hg10 mi
10:00 pm75 °FClear.8 mph29%29.95 "Hg10 mi
9:30 pm77 °FClear.8 mph22%29.92 "Hg10 mi
9:00 pm79 °FClear.9 mph21%29.95 "Hg10 mi
8:30 pm79 °FClear.8 mph21%29.92 "Hg10 mi
8:00 pm79 °FClear.6 mph21%29.92 "Hg10 mi
7:30 pm79 °FClear.6 mph16%29.92 "Hg10 mi
7:00 pm82 °FClear.6 mph19%29.89 "Hg10 mi
6:30 pm82 °FClear.9 mph14%29.89 "Hg10 mi
6:00 pm86 °FClear.10 mph13%29.89 "Hg10 mi
5:30 pm88 °FSunny.10 mph15%29.89 "Hg10 mi
5:00 pm90 °FSunny.13 mph13%29.86 "Hg10 mi
4:30 pm90 °FSunny.12 mph16%29.86 "Hg10 mi
4:00 pm91 °FSunny.12 mph10%29.86 "Hg10 mi
3:30 pm91 °FSunny.13 mph10%29.86 "Hg10 mi
3:00 pm91 °FSunny.9 mph10%29.86 "Hg10 mi
2:30 pm90 °FSunny.12 mph13%29.86 "Hg10 mi
2:00 pm91 °FSunny.14 mph10%29.86 "Hg10 mi
1:30 pm90 °FSunny.10 mph14%29.86 "Hg10 mi
1:00 pm90 °FSunny.17 mph14%29.89 "Hg10 mi
12:30 pm88 °FSunny.12 mph15%29.89 "Hg10 mi
12:00 pm86 °FSunny.12 mph20%29.89 "Hg10 mi
11:30 am84 °FSunny.16 mph16%29.92 "Hg10 mi
11:00 am82 °FSunny.14 mph12%29.95 "Hg10 mi
10:30 am79 °FSunny.9 mph15%29.95 "Hg10 mi
10:00 am77 °FSunny.17 mph18%29.95 "Hg10 mi
9:30 am73 °FSunny.14 mph20%29.98 "Hg10 mi
9:00 am70 °FSunny.10 mph16%29.98 "Hg10 mi
8:30 am66 °FSunny.12 mph26%29.95 "Hg10 mi
8:00 am66 °FSunny.14 mph18%29.95 "Hg10 mi
7:30 am64 °FSunny.10 mph21%29.95 "Hg10 mi
7:00 am63 °FSunny.12 mph20%29.95 "Hg10 mi
6:30 am61 °FSunny.10 mph20%29.95 "Hg10 mi
6:00 am63 °FClear.12 mph17%29.95 "Hg10 mi
5:30 am64 °FClear.12 mph16%29.92 "Hg10 mi
5:00 am64 °FClear.12 mph15%29.92 "Hg10 mi
4:30 am64 °FClear.9 mph16%29.89 "Hg10 mi
4:00 am64 °FClear.9 mph16%29.89 "Hg10 mi
3:30 am66 °FClear.14 mph17%29.89 "Hg10 mi
3:00 am66 °FClear.14 mph18%29.89 "Hg10 mi
2:30 am68 °FClear.14 mph14%29.89 "Hg10 mi
2:00 am68 °FClear.12 mph13%29.89 "Hg10 mi
1:30 am68 °FClear.12 mph16%29.89 "Hg10 mi
1:00 am70 °FClear.12 mph15%29.92 "Hg10 mi
12:30 am70 °FClear.12 mph15%29.92 "Hg10 mi
12:00 am73 °FClear.12 mph14%29.92 "Hg10 mi
Weather by CustomWeather, © 2021

See weather overview